This demonstration page uses our WeatherBlox Daily Observations layout. Learn more.

36.17497, -115.13722

Hourly Observations for February 7, 2016

Temp ( °F °C ) Dew Point ( °F °C ) Humidity (%) Winds ( mph kmh ) Pressure ( in mb ) Visibility ( mi km ) Precip ( " mm )
12:53 am 00:53 Clear 49 9.4 26 -3.3 41 41 NNW 10 17 30.4 1029 10 16.0934 0 0
1:53 am 01:53 Clear 48 8.9 25 -3.9 41 41 N 15 24 30.38 1029 10 16.0934 0 0
2:53 am 02:53 Clear 47 8.3 25 -3.9 42 42 N 7 11 30.39 1029 10 16.0934 0 0
3:53 am 03:53 Clear 45 7.2 25 -3.9 46 46 NW 5 7 30.39 1029 10 16.0934 0 0
4:53 am 04:53 Clear 45 7.2 24 -4.4 44 44 NW 15 24 30.39 1029 10 16.0934 0 0
5:53 am 05:53 Clear 44 6.7 24 -4.4 45 45 N 9 15 30.41 1030 10 16.0934 0 0
6:53 am 06:53 Sunny 44 6.7 24 -4.4 45 45 NNW 9 15 30.43 1031 10 16.0934 0 0
7:53 am 07:53 Sunny 50 10 23 -5 35 35 N 8 13 30.45 1031 10 16.0934 0 0
8:53 am 08:53 Sunny 53 11.7 24 -4.4 32 32 ENE 7 11 30.46 1032 10 16.0934 0 0
9:53 am 09:53 Sunny 56 13.3 22 -5.6 27 27 ENE 5 7 30.45 1031 10 16.0934 0 0
10:53 am 10:53 Sunny 59 15 21 -6.1 23 23 Calm 30.45 1031 10 16.0934 0 0
11:53 am 11:53 Sunny 63 17.2 20 -6.7 19 19 ENE 7 11 30.41 1030 10 16.0934 0 0
12:53 pm 12:53 Sunny 68 20 19 -7.2 15 15 NE 8 13 30.37 1029 10 16.0934 0 0
1:53 pm 13:53 Sunny 69 20.6 16 -8.9 13 13 VRB 6 9 30.36 1028 10 16.0934 0 0
2:53 pm 14:53 Sunny 72 22.2 18 -7.8 13 13 N 15 24 30.34 1027 10 16.0934 0 0
3:53 pm 15:53 Sunny 71 21.7 20 -6.7 14 14 N 16 26 30.35 1028 10 16.0934 0 0
4:53 pm 16:53 Sunny 69 20.6 21 -6.1 16 16 NE 7 11 30.36 1028 10 16.0934 0 0
5:53 pm 17:53 Clear 66 18.9 21 -6.1 18 18 NNE 7 11 30.38 1029 10 16.0934 0 0
6:53 pm 18:53 Clear 63 17.2 22 -5.6 21 21 NNE 5 7 30.4 1030 10 16.0934 0 0
7:53 pm 19:53 Clear 61 16.1 23 -5 23 23 N 10 17 30.41 1030 10 16.0934 0 0
8:53 pm 20:53 Clear 60 15.6 24 -4.4 25 25 NNW 13 20 30.42 1030 10 16.0934 0 0
9:53 pm 21:53 Clear 58 14.4 24 -4.4 27 27 N 15 24 30.44 1031 10 16.0934 0 0
10:53 pm 22:53 Clear 57 13.9 23 -5 27 27 N 12 19 30.45 1031 10 16.0934 0 0
11:53 pm 23:53 Clear 56 13.3 22 -5.6 27 27 N 15 24 30.45 1031 10 16.0934 0 0

Powered by AerisWeather